Mt. Soledad (578) Station Data

Red Flag Warning: No
Fire Weather Zone: 243
SDGE Region: Beach Cities
Lat/Lon: 32.814/-117.241

Observations

Time Wind Speed/Gust Temp(F) RH Fuel Moist Fuel Temp(F) Dewpt(F) Tmax(F) Tmin(F) Accum Precip 10-min Precip SL Press(mb)
2/27 11:40pm 272 4 G 9 52° 95% 72.8% 51.87° 50° 56.6° 49.5° - - 1014.0
2/27 11:20pm 269 3 G 11 52° 96% 72.7% 51.81° 51° 56.6° 49.5° - - 1014.0
2/27 11:10pm 264 4 G 10 52° 97% 73.4% 52.19° 51° 56.6° 49.5° - - 1014.0
2/27 11:00pm 268 3 G 11 52° 97% 73.5% 52.63° 51° 56.6° 49.5° - - 1014.0
2/27 10:50pm 273 4 G 9 52° 97% 73.6% 52.55° 51° 56.6° 49.5° - - 1014.0
2/27 10:40pm 273 4 G 8 53° 97% 74% 53° 52° 56.6° 49.5° - - 1014.0
2/27 10:30pm 281 6 G 12 53° 97% 74% 53.12° 52° 56.6° 49.5° - - 1014.0
2/27 10:20pm 281 4 G 10 53° 97% 74.4% 53.43° 52° 56.6° 49.5° - - 1014.0
2/27 10:10pm 284 4 G 9 53° 96% 73.9% 53.48° 52° 56.6° 49.5° - - 1014.0
2/27 10:00pm 288 5 G 10 53° 96% 73.6% 53.62° 52° 56.6° 49.5° - - 1014.0
2/27 9:50pm 287 6 G 12 54° 96% 73.6% 53.84° 52° 56.6° 49.5° - - 1014.0
2/27 9:40pm 285 4 G 9 54° 96% 73.4% 53.93° 53° 56.6° 49.5° - - 1014.0
2/27 9:30pm 286 5 G 13 54° 96% 73.5% 54.1° 53° 56.6° 49.5° - - 1013.0
2/27 9:20pm 281 3 G 8 54° 96% 73.4% 54.39° 53° 56.6° 49.5° - - 1013.0
2/27 9:10pm 289 6 G 12 55° 96% 73.9% 54.5° 53° 56.6° 49.5° - - 1013.0
2/27 9:00pm 234 4 G 12 55° 96% 73.5% 55.11° 54° 56.6° 49.5° - - 1013.0
2/27 8:50pm 179 7 G 15 55° 96% 73.4% 55.32° 54° 56.6° 49.5° - - 1013.0
2/27 8:40pm 175 6 G 15 55° 96% 72.1% 55.34° 54° 56.6° 49.5° - - 1013.0
2/27 8:30pm 179 8 G 15 55° 97% 72.1% 55.52° 55° 56.6° 49.5° - - 1013.0
2/27 8:20pm 175 8 G 17 56° 97% 72.6% 55.82° 55° 56.6° 49.5° - - 1013.0
2/27 8:10pm 177 8 G 15 56° 97% 72.1% 55.97° 55° 56.6° 49.5° - - 1013.0
2/27 8:00pm 183 7 G 13 56° 97% 72.5% 56.08° 55° 56.6° 49.5° - - 1013.0
2/27 7:50pm 185 8 G 16 56° 97% 72.1% 56.34° 55° 56.6° 49.5° - - 1013.0
2/27 7:40pm 180 9 G 17 56° 97% 72.1% 56.27° 55° 56.6° 49.5° - - 1013.0
2/27 7:30pm 179 8 G 20 56° 97% 72% 56.23° 55° 56.6° 49.5° - - 1013.0
2/27 7:20pm 181 8 G 15 56° 97% 72.1% 56.4° 55° 56.6° 49.5° - - 1013.0
2/27 7:10pm 184 7 G 15 56° 97% 72.1% 56.38° 55° 56.6° 49.5° - - 1013.0
2/27 7:00pm 184 7 G 15 56° 97% 70.7% 56.42° 55° 56.6° 49.5° - - 1013.0
2/27 6:50pm 186 7 G 13 56° 97% 70.7% 56.32° 55° 56.6° 49.5° - - 1013.0
2/27 6:40pm 181 7 G 18 56° 97% 70.7% 56.29° 55° 56.6° 49.5° - - 1013.0
2/27 6:30pm 175 7 G 16 55° 97% 71.3% 55.95° 55° 56.6° 49.5° - - 1013.0
2/27 6:20pm 177 7 G 16 55° 97% 71.9% 55.84° 55° 56.6° 49.5° - - 1013.0
2/27 6:10pm 189 7 G 14 56° 97% 72.1% 55.91° 55° 56.6° 49.5° - - 1013.0
2/27 6:00pm 174 7 G 16 56° 97% 72.1% 55.95° 55° 56.6° 49.5° - - 1013.0
2/27 5:50pm 172 6 G 11 56° 97% 71.7% 56.42° 55° 56.6° 49.5° - - 1013.0
2/27 5:40pm 177 6 G 13 56° 97% 70.7% 56.49° 55° 56.6° 49.5° - - 1013.0
2/27 5:30pm 188 7 G 14 56° 97% 70.8% 56.34° 55° 56.6° 49.5° - - 1013.0
2/27 5:20pm 192 6 G 14 56° 97% 70.7% 56.19° 55° 56.6° 49.5° - - 1013.0
2/27 5:10pm 187 7 G 15 56° 97% 70.7% 56.19° 55° 56.6° 49.5° - - 1013.0
2/27 5:00pm 186 8 G 14 56° 97% 69.1% 56.44° 55° 56.6° 49.5° - - 1013.0
2/27 4:50pm 183 8 G 21 56° 97% 69.3% 56.34° 55° 56.6° 49.5° - - 1013.0
2/27 4:40pm 182 8 G 18 56° 97% 69.8% 56.38° 55° 56.6° 49.5° - - 1013.0
2/27 4:30pm 175 9 G 17 56° 97% 70.5% 56.46° 55° 56.6° 49.5° - - 1013.0
2/27 4:20pm 178 7 G 14 56° 97% 70% 56.44° 55° 56.6° 49.5° - - 1013.0
2/27 4:10pm 175 8 G 17 56° 97% 68.9% 56.21° 55° 56.6° 49.5° - - 1013.0
2/27 4:00pm 174 9 G 16 56° 97% 69.6% 56.12° 55° 56.6° 49.5° - - 1013.0
2/27 3:50pm 172 9 G 17 56° 97% 69.4% 56.2° 55° 56.6° 49.5° - - 1013.0
2/27 3:40pm 165 9 G 20 56° 97% 69.4% 56.38° 55° 56.6° 49.5° - - 1013.0
2/27 3:30pm 170 9 G 18 56° 97% 69.7% 56.48° 55° 56.6° 49.5° - - 1013.0
2/27 3:20pm 173 8 G 18 56° 97% 70.3% 56.46° 55° 56.6° 49.5° - - 1013.0
2/27 3:10pm 177 7 G 15 56° 97% 70% 56.42° 55° 56.6° 49.5° - - 1013.0
2/27 3:00pm 168 7 G 13 56° 97% 69.1% 56.25° 55° 56.6° 49.5° - - 1013.0
2/27 2:50pm 158 9 G 15 56° 97% 69.2% 56.27° 55° 56.6° 49.5° - - 1013.0
2/27 2:40pm 159 9 G 20 56° 97% 69.2% 56.21° 55° 56.6° 49.5° - - 1013.0
2/27 2:30pm 159 10 G 20 56° 97% 69.2% 56.21° 55° 56.6° 49.5° - - 1013.0
2/27 2:20pm 172 9 G 19 56° 97% 69.7% 56.42° 55° 56.6° 49.5° - - 1014.0
2/27 2:10pm 179 9 G 20 56° 97% 69.3% 56.31° 55° 56.6° 49.5° - - 1014.0
2/27 2:00pm 174 9 G 17 56° 97% 69.1% 56.29° 55° 56.6° 49.5° - - 1014.0
2/27 1:50pm 174 9 G 18 56° 97% 69.3% 56.32° 55° 56.6° 49.5° - - 1014.0
2/27 1:40pm 180 9 G 17 56° 97% 69.2% 56.16° 55° 56.6° 49.5° - - 1014.0
2/27 1:30pm 188 9 G 20 56° 97% 69.3% 56.1° 55° 56.6° 49.5° - - 1014.0
2/27 1:20pm 181 8 G 21 56° 97% 69.1% 56.17° 55° 56.6° 49.5° - - 1014.0
2/27 1:10pm 181 8 G 20 56° 97% 68.6% 56.23° 55° 56.6° 49.5° - - 1014.0
2/27 1:00pm 188 10 G 20 56° 97% 68.7% 55.93° 55° 56.6° 49.5° - - 1014.0
2/27 12:50pm 185 11 G 21 55° 97% 68.2% 55.91° 55° 56.6° 49.5° - - 1014.0
2/27 12:40pm 175 9 G 19 56° 97% 67.7% 56.21° 55° 56.6° 49.5° - - 1014.0
2/27 12:30pm 177 10 G 22 56° 97% 66.8% 56.36° 55° 56.6° 49.5° - - 1014.0
2/27 12:20pm 182 9 G 22 56° 97% 67.6% 56.33° 55° 56.6° 49.5° - - 1015.0
2/27 12:10pm 181 9 G 19 56° 97% 67.1% 56.03° 55° 56.6° 49.5° - - 1015.0
2/27 12:00pm 187 10 G 20 56° 97% 67.3% 56.05° 55° 56.6° 49.5° - - 1015.0
2/27 11:50am 179 9 G 18 56° 97% 67.7% 56.25° 55° 56.6° 49.5° - - 1015.0
2/27 11:40am 178 9 G 20 55° 97% 68% 56.01° 55° 56.6° 49.5° - - 1015.0
2/27 11:30am 174 9 G 19 55° 97% 68% 56.03° 55° 56.6° 49.5° - - 1015.0
2/27 11:20am 175 9 G 18 55° 97% 66.9% 55.92° 54° 56.6° 49.5° - - 1015.0
2/27 11:10am 175 8 G 15 55° 97% 66.4% 55.56° 54° 56.6° 49.5° - - 1015.0
2/27 11:00am 176 9 G 19 54° 97% 66% 55.19° 54° 56.6° 49.5° - - 1015.0
2/27 10:50am 171 8 G 19 54° 97% 66.7% 55.04° 54° 56.6° 49.5° - - 1015.0
2/27 10:40am 173 8 G 18 55° 97% 66.6% 55.19° 54° 56.6° 49.5° - - 1015.0
2/27 10:30am 175 8 G 20 55° 97% 67.4% 55.48° 54° 56.6° 49.5° - - 1015.0
2/27 10:20am 174 9 G 19 55° 97% 66.2% 55.32° 54° 56.6° 49.5° - - 1015.0
2/27 10:10am 174 10 G 19 55° 97% 66% 55.32° 54° 56.6° 49.5° - - 1015.0
2/27 10:00am 174 10 G 17 55° 97% 66.3% 55.73° 55° 56.6° 49.5° - - 1015.0
2/27 9:50am 175 9 G 17 55° 97% 65.7% 56.03° 55° 56.6° 49.5° - - 1015.0
2/27 9:40am 174 9 G 18 56° 97% 65.5% 56.16° 55° 56.6° 49.5° - - 1015.0
2/27 9:30am 179 8 G 18 56° 97% 65.8% 56.47° 55° 56.6° 49.5° - - 1015.0
2/27 9:20am 178 8 G 15 56° 97% 66.1% 56.47° 55° 56.6° 49.5° - - 1015.0
2/27 9:10am 180 8 G 16 56° 97% 65.8% 56.38° 55° 56.6° 49.5° - - 1015.0
2/27 9:00am 176 8 G 15 56° 97% 64.7% 56.57° 55° 56.6° 49.5° - - 1015.0
2/27 8:50am 173 8 G 17 56° 97% 64.7% 56.47° 55° 56.6° 49.5° - - 1015.0
2/27 8:40am 175 8 G 16 56° 97% 64.1% 56.42° 55° 56.6° 49.5° - - 1015.0
2/27 8:30am 176 8 G 15 56° 97% 64.5% 56.33° 55° 56.6° 49.5° - - 1015.0
2/27 8:20am 179 8 G 17 56° 97% 64.1% 56.34° 55° 56.6° 49.5° - - 1015.0
2/27 8:10am 174 7 G 17 56° 97% 64.2% 56.44° 55° 56.6° 49.5° - - 1015.0
2/27 8:00am 172 9 G 18 56° 97% 64.4% 56.23° 55° 56.6° 49.5° - - 1015.0
2/27 7:50am 181 7 G 15 56° 97% 63.7% 56.4° 55° 56.6° 49.5° - - 1015.0
2/27 7:40am 177 7 G 13 56° 97% 63.3% 56.46° 55° 56.6° 49.5° - - 1015.0
2/27 7:30am 176 8 G 16 56° 97% 62.8% 56.35° 55° 56.6° 49.5° - - 1015.0
2/27 7:20am 177 7 G 18 56° 97% 63.7% 56.4° 55° 56.6° 49.5° - - 1014.0
2/27 7:10am 175 9 G 17 56° 97% 63.4% 56.38° 55° 56.6° 49.5° - - 1014.0
2/27 7:00am 172 7 G 15 56° 97% 62.2% 56.29° 55° 56.6° 49.5° - - 1014.0
2/27 6:50am 175 9 G 22 56° 97% 62.2% 56.37° 55° 56.6° 49.5° - - 1014.0
2/27 6:40am 180 9 G 19 56° 97% 61.6% 56.35° 55° 56.6° 49.5° - - 1014.0
2/27 6:30am 175 9 G 18 56° 97% 61.1% 56.31° 55° 56.6° 49.5° - - 1014.0
2/27 6:20am 179 7 G 16 56° 97% 61.1% 56.42° 55° 56.6° 49.5° - - 1014.0
2/27 6:10am 184 7 G 18 56° 97% 61% 56.5° 55° 56.6° 49.5° - - 1014.0
2/27 6:00am 177 8 G 17 56° 97% 61.2% 56.37° 55° 56.5° 49.5° - - 1014.0
2/27 5:50am 179 8 G 18 56° 97% 60.9% 56.32° 55° 56.4° 49.5° - - 1014.0
2/27 5:40am 179 7 G 15 56° 97% 61.5% 56.35° 55° 56.4° 49.5° - - 1014.0
2/27 5:30am 174 9 G 17 56° 97% 60.7% 56.26° 55° 56.4° 49.5° - - 1014.0
2/27 5:20am 175 8 G 16 56° 97% 60.8% 56.2° 55° 56.3° 49.5° - - 1014.0
2/27 5:10am 176 8 G 15 56° 97% 61.7% 56.03° 55° 56.3° 49.5° - - 1014.0
2/27 5:00am 175 8 G 18 56° 97% 61.7% 56.02° 55° 56.2° 49.5° - - 1014.0
2/27 4:50am 173 5 G 13 55° 97% 60% 55.9° 55° 56° 49.5° - - 1014.0
2/27 4:40am 177 5 G 11 55° 97% 59.5% 55.55° 54° 56° 49.5° - - 1014.0
2/27 4:30am 156 4 G 10 53° 97% 59.8% 53.64° 52° 53.8° 49.5° - - 1014.0
2/27 4:20am 146 3 G 10 52° 96% 59.7% 52.75° 51° 53.1° 49.5° - - 1014.0
2/27 4:10am 121 4 G 8 52° 96% 59.2% 52.11° 51° 52.2° 49.5° - - 1014.0
2/27 4:00am 112 4 G 7 52° 96% 58% 52.02° 51° 52.2° 49.5° - - 1014.0
2/27 3:50am 95 6 G 10 52° 96% 57.7% 51.78° 50° 52.1° 49.5° - - 1014.0
2/27 3:40am 76 5 G 9 51° 96% 57.6% 51.6° 50° 51.9° 49.5° - - 1014.0
2/27 3:30am 63 5 G 8 51° 96% 57.2% 51.17° 50° 51.6° 49.5° - - 1014.0
2/27 3:20am 58 4 G 7 51° 96% 56.9% 50.86° 49° 51.2° 49.5° - - 1014.0
2/27 3:10am 57 4 G 8 50° 96% 56.8% 50.7° 49° 51.2° 49.5° - - 1015.0
2/27 3:00am 32 6 G 9 50° 96% 56.5% 50.57° 49° 51.2° 49.5° - - 1015.0
2/27 2:50am 35 6 G 9 50° 96% 56.2% 50.55° 49° 51.2° 49.5° - - 1015.0
2/27 2:40am 41 4 G 7 50° 96% 56.3% 50.54° 49° 51.2° 49.5° - - 1016.0
2/27 2:30am 31 4 G 7 50° 96% 55.2% 50.55° 49° 51.2° 49.5° - - 1016.0
2/27 2:20am 50 4 G 7 50° 96% 53.1% 50.7° 49° 51.2° 49.5° - - 1016.0
2/27 2:10am 68 5 G 8 50° 96% 52% 50.75° 49° 51.2° 49.5° - - 1016.0
2/27 2:00am 62 4 G 7 51° 96% 51.5% 50.86° 49° 51.2° 49.5° - - 1016.0
2/27 1:50am 66 4 G 6 51° 96% 51.2% 50.97° 50° 51.2° 49.5° - - 1016.0
2/27 1:40am 77 4 G 6 51° 96% 50.9% 51° 49° 51.1° 49.5° - - 1017.0
2/27 1:30am 71 4 G 7 51° 96% 49.2% 50.9° 49° 51° 49.5° - - 1017.0
2/27 1:20am 68 4 G 6 50° 96% 46.3% 50.82° 49° 51° 49.5° - - 1017.0
2/27 1:10am 59 4 G 6 50° 95% 41.9% 50.55° 49° 50.5° 49.5° - - 1017.0
2/27 1:00am 49 3 G 5 50° 95% 41% 50.36° 49° 50.5° 49.5° - - 1017.0
2/27 12:50am 33 4 G 6 50° 95% 37.4% 50.41° 49° 50.4° 49.5° - - 1017.0
2/27 12:40am 34 3 G 5 50° 95% 31.1% 50.28° 48° 50.4° 49.5° - - 1018.0
2/27 12:30am 39 4 G 6 50° 94% 26.7% 50.23° 48° 50.4° 49.5° - - 1018.0
2/27 12:20am 33 4 G 6 50° 94% 24% 50.18° 48° 50.4° 49.5° - - 1018.0
2/27 12:10am 41 3 G 6 50° 93% 20.5% 50.1° 48° 50.2° 49.5° - - 1018.0
2/27 12:00am 40 3 G 5 50° 91% 19.2% 50.02° 47° 57.4° 48.5° - - 1018.0
2/26 11:50pm 31 4 G 7 50° 90% 18.9% 50.16° 47° 57.4° 48.5° - - 1018.0
2/26 11:40pm 42 5 G 7 50° 89% 18.7% 50.25° 47° 57.4° 48.5° - - 1018.0
2/26 11:30pm 50 3 G 5 50° 87% 18.6% 50.12° 46° 57.4° 48.5° - - 1018.0
2/26 11:20pm 41 3 G 6 50° 85% 18.6% 50.1° 46° 57.4° 48.5° - - 1018.0
2/26 11:10pm 66 3 G 5 51° 81% 18.5% 50.18° 45° 57.4° 48.5° - - 1018.0
2/26 11:00pm 65 4 G 6 51° 78% 18.5% 50.18° 44° 57.4° 48.5° - - 1018.0
2/26 10:50pm 50 3 G 5 51° 78% 18.5% 50.25° 44° 57.4° 48.5° - - 1018.0
2/26 10:40pm 31 3 G 5 51° 78% 18.5% 50° 44° 57.4° 48.5° - - 1018.0
2/26 10:30pm 28 4 G 6 51° 78% 18.5% 49.67° 44° 57.4° 48.5° - - 1018.0
2/26 10:20pm 32 3 G 6 50° 78% 18.5% 49.16° 44° 57.4° 48.5° - - 1018.0
2/26 10:10pm 22 4 G 5 50° 78% 18.5% 48.67° 44° 57.4° 48.5° - - 1018.0
2/26 10:00pm 22 5 G 6 50° 78% 18.4% 48.04° 44° 57.4° 48.5° - - 1018.0
2/26 9:50pm 20 4 G 6 50° 78% 18.3% 47.63° 43° 57.4° 48.5° - - 1018.0
2/26 9:40pm 356 2 G 3 51° 76% 18.3% 47.82° 44° 57.4° 48.5° - - 1018.0
2/26 9:30pm 344 3 G 4 51° 76% 18.2% 47.5° 44° 57.4° 48.5° - - 1018.0
2/26 9:20pm 327 2 G 3 51° 77% 18.1% 47.63° 44° 57.4° 48.5° - - 1018.0
2/26 9:10pm 326 2 G 3 51° 76% 18% 47.68° 44° 57.4° 48.5° - - 1018.0
2/26 9:00pm 333 2 G 3 52° 74% 18% 47.59° 44° 57.4° 48.5° - - 1018.0
2/26 8:50pm 336 2 G 2 51° 75% 17.9% 47.45° 44° 57.4° 48.5° - - 1018.0
2/26 8:40pm 322 2 G 3 52° 74% 17.8% 47.56° 44° 57.4° 48.5° - - 1018.0
2/26 8:30pm 324 1 G 3 52° 74% 17.7% 47.54° 44° 57.4° 48.5° - - 1018.0
2/26 8:20pm 311 1 G 2 52° 75% 17.6% 47.84° 44° 57.4° 48.5° - - 1018.0
2/26 8:10pm 294 1 G 2 52° 75% 17.5% 48.57° 44° 57.4° 48.5° - - 1018.0
2/26 8:00pm 303 1 G 3 52° 75% 17.5% 49.19° 44° 57.4° 48.5° - - 1018.0
2/26 7:50pm 275 1 G 2 52° 75% 17.4% 49.67° 44° 57.4° 48.5° - - 1018.0
2/26 7:40pm 286 1 G 3 52° 75% 17.4% 49.98° 44° 57.4° 48.5° - - 1018.0
2/26 7:30pm 287 1 G 2 52° 75% 17.4% 50.52° 44° 57.4° 48.5° - - 1018.0
2/26 7:20pm 296 1 G 4 52° 75% 17.4% 50.98° 44° 57.4° 48.5° - - 1018.0
2/26 7:10pm 269 1 G 4 52° 74% 17.3% 50.69° 44° 57.4° 48.5° - - 1018.0
2/26 7:00pm 275 1 G 4 52° 73% 17.3% 50.69° 44° 57.4° 48.5° - - 1018.0
2/26 6:50pm 271 0 G 2 53° 73% 17.2% 50.59° 44° 57.4° 48.5° - - 1018.0
2/26 6:40pm 245 0 G 2 53° 73% 17.2% 50.75° 44° 57.4° 48.5° - - 1018.0
2/26 6:30pm 251 1 G 5 53° 72% 17.2% 50.98° 44° 57.4° 48.5° - - 1018.0
2/26 6:20pm 252 1 G 5 53° 72% 17.1% 51.34° 44° 57.4° 48.5° - - 1018.0
2/26 6:10pm 212 1 G 5 53° 72% 17.1% 51.59° 44° 57.4° 48.5° - - 1018.0
2/26 6:00pm 215 2 G 8 53° 72% 17.1% 51.99° 44° 57.4° 48.5° - - 1018.0
2/26 5:50pm 221 2 G 6 54° 71% 17.1% 52.28° 44° 57.4° 48.5° - - 1018.0
2/26 5:40pm 215 2 G 7 54° 72% 17% 53.07° 45° 57.4° 48.5° - - 1018.0
2/26 5:30pm 219 3 G 8 54° 72% 17.1% 54.04° 46° 57.4° 48.5° - - 1018.0
2/26 5:20pm 224 4 G 10 55° 73% 17.1% 54.7° 46° 57.4° 48.5° - - 1018.0
2/26 5:10pm 235 4 G 8 55° 73% 17.1% 56.04° 46° 57.4° 48.5° - - 1018.0
2/26 5:00pm 224 5 G 9 55° 70% 17.2% 56.91° 46° 57.4° 48.5° - - 1018.0